Home > Weather > Laval > Past weeks

Flag for Canada Past Weather in Laval, Quebec, Canada — Yesterday and Last 2 Weeks

Now
61 °F

Passing clouds.


Feels Like: 61 °F
Forecast: 61 / 79 °F
Wind: 7 mph from Southwest

Location: Montreal / Mirabel

Current Time: May 25, 2016 at 5:14:09 AM

Latest Report: May 25, 2016 at 4:00 AM


Visibility: 25 mi

Pressure: 29.86 "Hg

Humidity: 52%

Dew Point: 43 °F

Location of LavalLocation

Past Weather in Laval — Graph

°F

Laval Temperature Yesterday

Maximum temperature yesterday: 82 °F (at 2:00 PM)
Minimum temperature yesterday: 48 °F (at 3:00 AM)
Average temperature yesterday: 67 °F

High & Low Weather Summary for the Past Weeks

 TemperatureHumidityPressure
High82 °F (May 24, 2:00 PM)100% (May 13, 1:49 PM)30.25 "Hg (May 13, 1:49 PM)
Low34 °F (May 15, 11:00 PM)17% (May 11, 1:00 PM)29.49 "Hg (May 14, 5:00 PM)
Average56 °F57%29.96 "Hg
* Reported May 10 3:00 AM — May 25 3:00 AM, Laval, Weather by CustomWeather, © 2016

Note: Actual official high and low records may vary slightly from our data, if they occured in-between our weather recording intervals... More about our weather records

Advertising

Laval Weather History for the Previous 24 Hours

Scroll right to see more
 ConditionsComfort  
Time TempWeatherWind HumidityBarometerVisibility
3:00 AM
Wed, May 25
63 °FPassing clouds.7 mph49%29.85 "Hg25 mi
2:00 AM64 °FPassing clouds.8 mph46%29.85 "Hg25 mi
1:00 AM66 °FPassing clouds.6 mph40%29.85 "Hg25 mi
12:00 AM63 °FPassing clouds.6 mph45%29.85 "Hg25 mi
11:00 PM
Tue, May 24
63 °FPassing clouds.5 mph49%29.85 "Hg25 mi
10:00 PM64 °FPassing clouds.2 mph43%29.86 "Hg25 mi
9:00 PM68 °FPassing clouds.No wind38%29.85 "Hg25 mi
8:00 PM72 °FPassing clouds.6 mph38%29.84 "Hg25 mi
7:00 PM81 °FPassing clouds.7 mph24%29.84 "Hg25 mi
6:00 PM82 °FPassing clouds.7 mph25%29.85 "Hg25 mi
5:00 PM82 °FPassing clouds.2 mph20%29.85 "Hg25 mi
4:00 PM82 °FPassing clouds.3 mph20%29.87 "Hg25 mi
3:00 PM82 °FPassing clouds.2 mph23%29.87 "Hg25 mi
2:00 PM82 °FPassing clouds.5 mph23%29.88 "Hg25 mi
1:00 PM81 °FPassing clouds.5 mph32%29.90 "Hg25 mi
12:00 PM79 °FPassing clouds.5 mph30%29.91 "Hg25 mi
11:00 AM75 °FPassing clouds.No wind39%29.92 "Hg25 mi
10:00 AM72 °FPassing clouds.3 mph44%29.93 "Hg25 mi
9:00 AM66 °FPassing clouds.5 mph52%29.93 "Hg25 mi
8:00 AM61 °FPassing clouds.5 mph63%29.93 "Hg25 mi
7:00 AM54 °FScattered clouds.6 mph77%29.93 "Hg35 mi
6:00 AM48 °FPassing clouds.5 mph87%29.93 "Hg25 mi
5:00 AM50 °FPassing clouds.2 mph82%29.92 "Hg25 mi
Weather by CustomWeather, © 2016

See weather overviewHow to use our weather pages